Wind_Speed
13 12 11 11 11 11 10 10 9 8 7 6 6 7 7 8 9 10 11 11 11 11 11 13 13 14 13 13 15 16 15 13 12 13 16 16 17 16 13 11 5 5 13 14 10 12 14 13 13 13 14 13 12 12 11 10 10 10 11 11 10 10 9
13 12 12 12 12 11 10 9 8 7 6 6 6 6 6 7 8 10 10 10 10 11 12 12 13 14 14 14 15 16 15 13 11 12 14 14 14 14 14 12 7 7 13 14 9 9 12 13 13 14 16 15 13 12 10 10 10 10 11 10 10 9 9
14 14 14 13 12 11 10 8 8 7 7 6 6 6 6 6 7 8 8 8 9 10 11 11 12 13 14 15 15 15 14 13 12 11 12 12 11 12 14 14 11 10 14 16 12 11 11 11 12 13 14 14 13 12 10 10 9 10 10 10 9 8 8
15 16 15 14 13 11 10 9 7 7 6 6 6 6 6 6 7 7 7 8 8 9 9 10 11 12 13 14 14 14 14 13 13 12 12 12 11 12 14 15 14 11 11 13 13 13 12 10 12 14 12 11 13 12 10 10 10 10 10 9 9 8 9
15 16 15 14 13 12 10 9 7 6 6 5 5 5 6 6 6 7 7 7 7 7 8 9 11 11 11 13 13 13 13 13 13 12 12 13 12 13 14 15 16 12 8 9 11 12 12 9 10 14 13 11 12 12 11 10 10 10 10 10 9 9 10
15 16 15 14 13 12 11 9 8 7 6 5 5 5 5 6 6 7 6 6 7 8 8 9 10 11 11 12 13 12 12 12 11 11 11 12 11 12 13 13 14 11 8 7 8 9 11 9 10 14 14 12 13 13 11 10 10 10 10 10 11 10 10
16 17 16 15 15 14 13 11 11 9 8 7 7 6 6 6 6 7 7 7 8 9 9 9 9 9 9 10 12 12 11 10 9 9 10 11 11 11 12 11 11 10 9 7 6 8 10 9 10 13 14 14 14 12 11 10 10 9 9 10 11 11 11
17 18 17 16 15 14 12 12 11 11 10 8 7 7 7 6 6 7 8 9 9 9 9 9 8 8 8 9 10 10 10 8 8 8 10 11 11 11 11 10 11 11 10 9 7 7 8 8 8 9 11 13 15 13 10 9 8 7 8 9 9 10 10
17 18 17 16 14 12 12 11 11 10 9 7 6 7 7 7 7 7 9 9 10 9 9 8 7 7 8 9 9 9 9 9 9 9 10 10 11 11 10 10 12 12 11 10 10 9 8 8 6 7 7 7 11 14 11 8 8 8 8 9 9 8 10
17 17 16 15 14 13 12 11 10 9 8 6 5 7 7 7 7 8 9 10 11 10 9 9 7 6 8 10 11 10 9 10 9 9 9 9 10 10 10 10 13 13 11 11 11 10 9 8 6 5 5 3 5 12 14 11 10 10 9 9 9 8 9
16 15 14 13 14 13 12 12 10 8 7 5 5 7 8 7 7 8 8 9 10 10 11 10 9 8 8 10 11 10 10 10 10 9 8 8 8 9 9 10 12 13 12 11 12 11 10 8 6 6 6 4 2 7 12 13 12 12 10 9 9 9 9
15 14 13 13 13 12 11 11 10 8 6 5 6 8 8 7 6 6 7 8 8 9 11 10 10 10 9 9 10 10 10 10 9 8 7 7 7 7 7 8 11 12 12 11 12 13 11 8 8 8 7 6 4 5 9 12 11 11 11 9 9 9 9
14 12 11 12 12 11 11 10 8 7 5 4 5 7 8 7 6 6 8 9 8 8 10 10 11 11 10 10 10 10 10 9 9 8 7 7 8 8 7 7 8 10 11 12 13 14 12 9 9 10 8 7 6 7 8 8 7 8 10 9 9 8 9
12 11 11 11 11 11 10 9 7 6 5 4 4 6 7 7 7 9 11 10 8 9 9 9 10 10 9 9 10 10 10 10 9 9 9 10 10 10 9 8 8 9 10 11 13 14 12 10 10 10 9 8 8 7 6 6 5 7 8 8 8 8 8
12 11 11 11 11 10 10 8 7 6 4 3 3 5 6 6 8 11 12 11 10 10 10 9 9 9 9 10 11 12 12 11 11 11 11 11 11 10 9 8 6 7 9 10 12 13 13 12 11 11 9 9 8 7 6 6 5 6 7 7 7 7 8
13 13 12 11 11 10 9 8 7 5 3 2 3 5 6 6 9 12 12 11 11 10 10 10 10 10 10 11 12 12 12 12 11 11 11 10 10 9 8 8 6 6 7 8 10 13 13 13 12 11 10 9 8 7 7 7 7 7 7 7 6 8 9
15 14 12 11 10 10 10 9 7 5 3 3 4 5 5 6 9 12 12 11 11 10 9 9 9 10 10 11 11 12 12 12 11 10 9 8 8 7 6 6 5 5 5 5 7 11 13 13 12 11 11 10 9 8 8 9 10 10 10 9 7 8 9
15 14 12 10 10 10 10 9 7 4 3 4 5 5 5 6 8 12 13 12 10 9 9 8 8 9 10 11 11 11 11 11 10 9 8 7 7 6 6 5 5 5 6 5 6 8 11 12 11 10 10 10 10 9 9 11 12 13 13 12 10 9 10
16 15 13 11 11 11 10 8 6 4 4 5 5 5 6 6 7 10 12 12 10 9 8 8 8 9 10 10 10 11 11 11 10 9 9 8 7 7 7 6 6 6 7 6 6 7 8 9 9 9 8 8 9 9 10 11 13 14 14 14 13 12 11
16 16 14 12 12 11 10 8 6 5 6 6 6 7 8 8 8 9 10 10 10 8 7 7 7 8 9 9 9 10 11 12 11 10 10 9 8 8 8 9 8 8 8 8 7 7 7 7 6 6 6 7 8 8 9 10 11 13 14 15 15 15 14
17 16 15 14 13 11 10 9 8 7 8 9 9 10 9 9 8 8 8 8 8 7 7 6 6 6 7 7 7 9 11 12 12 11 10 9 8 8 9 11 11 10 10 10 9 8 7 7 6 6 7 8 8 8 8 8 9 10 11 12 13 14 15
18 17 16 14 12 11 11 10 9 10 11 12 12 11 9 8 8 7 8 8 8 8 7 6 6 6 6 5 5 7 9 11 11 10 9 9 8 8 8 10 11 11 11 10 10 9 9 8 8 8 8 8 8 8 8 8 9 9 10 11 13 14 16
20 18 15 12 10 11 11 11 11 12 14 14 13 11 9 8 8 8 8 8 8 9 8 8 7 7 7 7 6 6 8 9 9 9 8 8 8 7 7 8 9 10 10 10 10 9 9 9 9 9 9 9 9 9 9 10 11 11 11 13 13 14 16
20 21 20 15 12 13 14 13 13 14 15 15 14 12 10 9 9 9 9 9 9 9 9 9 9 8 9 9 8 7 8 8 8 7 7 6 6 7 7 8 8 9 9 9 10 10 10 10 10 11 11 11 10 10 10 11 12 13 14 15 16 17 18
20 20 20 16 13 15 16 16 15 15 16 16 14 12 10 8 9 9 9 9 9 10 9 9 9 8 8 9 9 9 9 9 9 9 9 8 8 8 9 9 9 9 10 10 11 11 12 12 13 13 12 12 12 12 12 12 12 13 14 15 17 18 18
21 19 17 16 15 15 16 16 15 15 16 15 14 13 10 8 8 9 9 9 9 9 9 9 8 8 8 8 8 9 9 9 10 10 10 10 11 11 11 11 11 11 12 12 13 13 14 14 14 15 15 14 14 14 13 13 13 13 14 15 16 17 18
18 18 17 16 16 16 16 16 16 15 14 13 13 12 11 9 9 9 10 10 10 10 9 9 9 9 8 8 8 8 9 9 9 10 10 11 11 12 12 13 13 13 14 14 14 14 14 15 15 16 17 17 17 16 16 16 15 15 16 16 17 18 18
16 17 17 17 17 17 16 16 15 15 14 13 12 11 10 9 9 10 11 11 12 12 11 11 11 10 10 10 10 9 10 10 10 10 11 11 12 13 13 14 14 15 15 15 15 16 16 16 17 17 18 19 19 19 19 19 18 18 19 19 20 21 21
15 16 16 16 16 16 16 15 15 14 13 13 12 10 10 9 9 9 9 10 11 12 12 12 12 12 11 11 11 11 11 12 12 12 13 13 14 15 15 16 17 17 18 18 18 19 19 20 20 20 20 21 21 21 21 21 21 22 22 23 23 24 25
15 14 13 13 14 14 14 14 15 14 13 14 13 12 11 9 8 7 7 8 9 10 11 11 12 13 13 14 14 14 15 15 16 16 17 18 18 19 19 20 20 21 21 21 22 23 23 24 24 24 24 25 25 25 25 25 25 26 26 26 27 27 28
13 12 11 11 12 12 10 9 11 12 12 12 12 12 10 9 8 7 7 7 9 10 11 12 13 14 15 16 17 18 18 19 20 20 21 21 22 22 23 23 24 24 25 25 26 26 27 27 27 28 28 29 29 29 29 29 30 30 30 30 30 30 29
9 8 8 8 8 7 5 5 7 8 7 7 8 8 8 8 9 8 7 7 8 10 12 14 15 15 16 17 18 18 19 19 20 20 21 21 21 22 22 23 24 24 25 26 27 28 28 29 29 29 30 31 32 33 32 32 32 32 31 31 30 29 29
5 4 4 4 4 3 2 3 4 5 5 6 7 8 9 9 8 7 6 6 8 11 13 14 15 16 17 17 18 19 19 20 21 22 22 23 23 23 24 24 24 24 24 25 26 27 28 28 28 29 29 31 32 32 32 32 32 31 30 30 28 28 29
4 3 1 1 1 1 0 1 2 3 4 6 7 8 11 11 10 10 10 10 12 14 15 16 16 17 18 19 20 21 22 23 25 26 27 28 29 29 30 30 30 29 29 28 28 28 28 28 29 29 30 31 31 31 30 30 31 30 29 28 27 27 28
4 3 2 2 2 2 3 2 2 3 4 6 7 7 9 10 10 12 14 14 16 19 20 21 21 22 23 23 23 24 25 27 28 30 31 32 33 34 34 35 36 36 36 36 35 34 33 32 32 32 32 31 31 31 31 30 31 30 30 30 28 27 27
5 5 4 3 3 4 4 4 4 4 5 6 7 8 9 10 11 12 13 15 17 19 20 21 22 23 24 24 25 26 27 29 31 32 34 35 36 37 38 38 38 39 39 40 40 40 40 39 38 37 36 34 32 32 33 33 33 33 33 33 31 29 28
6 6 6 5 5 5 5 5 5 5 6 6 7 8 9 10 11 12 13 14 16 17 18 19 19 20 22 23 24 25 26 28 30 31 33 34 35 36 38 39 39 39 40 40 41 42 42 42 42 41 40 38 35 34 35 36 36 36 35 35 35 33 32
Wind_Direction
188 189 192 192 194 197 198 197 197 194 191 188 187 187 191 196 195 192 190 190 193 192 188 185 181 179 183 186 186 180 177 183 191 193 185 180 184 183 183 187 187 194 190 183 174 165 152 141 138 134 129 126 124 122 121 120 118 119 119 114 106 98 92
185 188 188 185 187 189 189 190 190 188 186 183 180 179 180 186 188 189 192 195 196 191 183 182 183 182 185 190 189 185 183 184 192 197 193 191 193 190 187 190 187 175 187 190 187 182 166 147 146 145 138 133 127 125 124 121 122 127 126 118 108 97 91
183 186 185 183 185 185 186 189 187 186 185 180 177 173 170 173 180 184 186 189 192 191 185 186 190 190 190 192 191 190 189 190 195 199 200 202 201 199 196 196 195 184 187 194 195 194 180 156 151 150 145 140 133 127 122 115 117 125 127 121 111 100 94
185 185 184 184 184 184 185 187 186 186 182 180 177 170 169 169 170 175 173 176 184 188 190 193 194 194 196 194 191 191 191 192 196 197 199 203 202 203 203 204 207 200 193 201 206 202 190 168 154 151 150 147 139 132 124 113 109 118 124 121 114 107 103
187 184 183 183 181 179 178 179 183 183 177 175 175 172 174 172 168 168 164 167 175 181 188 189 189 194 195 194 194 193 193 195 196 197 200 203 203 203 206 213 215 209 199 210 219 210 198 190 169 156 152 152 146 140 131 115 110 117 122 120 117 113 112
181 178 178 176 171 165 159 158 162 164 163 163 166 170 176 177 180 180 170 162 162 169 177 179 185 194 189 188 192 190 192 198 199 200 203 205 206 206 208 216 219 209 193 203 223 214 200 197 183 163 153 154 154 146 136 121 113 117 120 121 121 120 119
170 169 169 166 160 154 148 146 148 148 150 153 159 167 171 175 184 191 186 172 161 160 166 171 179 187 186 188 190 184 187 198 199 200 204 205 206 205 205 208 211 204 188 184 201 209 202 196 189 175 160 156 156 149 140 130 119 120 125 124 125 126 125
165 164 163 161 157 152 146 143 143 143 145 145 154 166 171 172 172 181 185 177 167 161 161 164 167 176 186 190 184 176 179 185 186 192 198 202 202 199 202 202 200 196 185 175 174 187 198 195 191 186 172 160 158 154 149 142 133 132 137 133 129 131 133
166 164 163 160 157 152 145 141 141 143 142 137 150 164 167 170 164 165 173 173 172 171 170 171 168 176 190 190 181 177 181 184 186 190 194 199 200 199 202 202 197 192 181 172 169 169 181 184 179 186 185 171 161 159 159 158 156 152 146 142 140 141 143
170 167 164 161 159 155 148 146 143 141 141 137 151 161 160 167 167 164 168 172 177 179 182 186 185 186 190 191 190 188 191 191 189 192 197 200 200 202 204 200 194 189 180 173 169 164 168 169 165 172 179 177 165 166 165 164 166 164 155 151 154 157 157
175 171 167 165 165 159 153 150 143 136 136 136 146 152 153 161 168 170 174 179 185 188 190 193 191 184 179 185 191 191 191 188 186 192 200 200 199 203 206 202 195 188 183 176 169 165 163 158 151 155 160 151 156 176 172 163 162 166 164 161 164 170 169
179 174 172 173 170 161 154 151 144 136 136 134 139 147 149 157 168 176 175 174 179 183 185 185 179 174 171 174 180 181 178 178 181 187 190 190 190 193 194 196 194 190 186 180 171 168 164 155 152 152 155 155 141 156 166 161 162 170 169 165 167 174 175
182 179 178 178 173 161 154 152 146 142 143 134 134 145 152 161 172 171 161 156 156 161 167 168 168 168 167 165 164 163 162 166 168 165 162 164 162 158 157 164 177 182 183 181 174 170 165 158 161 162 164 173 160 147 155 159 163 173 173 169 171 176 180
186 184 183 179 170 159 154 154 152 151 153 141 133 146 157 165 167 158 151 148 147 149 152 155 158 157 154 151 146 144 146 150 149 143 142 144 141 136 134 137 153 166 172 176 174 172 168 164 168 170 174 189 188 174 172 173 169 175 181 183 182 185 189
186 182 178 173 166 161 157 155 156 160 160 150 144 154 164 165 157 151 150 151 149 145 139 139 142 139 137 140 139 139 141 139 140 141 140 141 139 134 127 122 132 154 168 175 175 175 174 172 174 179 185 198 205 206 211 212 203 192 195 202 201 203 205
181 176 172 168 162 160 161 158 157 161 163 166 170 171 173 166 155 151 152 155 154 147 137 133 135 136 138 144 145 144 142 135 134 140 141 141 143 140 135 128 124 139 161 175 183 185 185 184 186 190 195 200 209 223 236 243 241 229 218 219 219 220 222
178 174 170 165 161 162 165 161 159 164 171 186 194 186 180 172 162 159 157 157 158 154 147 140 140 143 146 150 153 152 148 141 137 140 142 142 144 143 140 140 138 143 154 169 186 190 192 193 195 200 206 208 216 230 240 247 251 249 242 238 237 237 237
177 173 168 164 163 164 165 160 158 167 178 193 203 194 184 177 169 166 164 163 164 162 160 155 152 154 155 157 161 162 161 157 154 155 157 158 160 160 160 160 159 160 167 178 183 185 190 196 200 207 212 216 225 237 246 250 252 254 251 243 241 250 249
176 173 169 166 162 160 159 159 163 173 175 186 197 183 165 160 161 167 170 168 168 170 172 170 166 166 168 168 169 170 171 172 173 174 178 179 181 184 183 180 175 172 176 182 180 182 190 195 201 210 217 226 238 247 254 256 255 256 255 246 242 250 253
178 174 168 162 156 155 158 160 166 176 172 169 166 149 135 133 138 154 167 170 172 176 176 176 175 175 179 180 179 178 178 179 181 182 184 186 186 191 191 184 178 178 180 178 175 178 187 194 206 221 234 241 248 254 260 260 257 257 256 251 248 248 249
183 174 165 157 154 156 161 166 169 172 167 158 151 140 129 125 126 134 149 159 165 167 161 159 164 168 179 184 184 183 183 181 181 181 181 181 175 174 181 183 182 185 188 189 191 195 204 214 224 231 238 242 246 256 260 257 256 255 252 249 245 241 244
186 171 159 156 164 167 165 171 175 171 168 163 157 152 144 139 135 129 129 131 138 146 148 149 154 154 157 163 168 176 181 181 181 179 180 179 171 165 171 183 189 195 199 204 211 217 223 229 230 231 235 240 246 254 257 256 255 253 248 244 241 240 245
186 180 177 182 199 198 183 183 186 178 174 173 170 169 165 160 157 150 142 140 143 148 151 154 161 165 165 164 164 167 173 179 182 184 185 184 183 182 181 188 196 202 207 212 216 222 228 234 240 246 250 253 255 255 254 255 256 256 255 253 251 252 254
188 189 196 205 213 206 193 193 195 186 180 181 183 183 179 175 174 169 165 164 164 162 160 159 162 168 172 176 178 178 178 182 185 191 194 194 198 205 207 210 214 218 223 228 232 237 243 248 255 259 262 265 267 265 261 259 259 258 258 259 261 262 263
190 189 196 204 206 198 192 195 197 192 188 188 191 193 189 185 185 186 185 183 180 178 177 175 172 171 172 175 179 184 188 192 195 198 203 206 210 216 222 226 230 233 238 242 246 251 257 263 266 266 266 268 269 271 271 269 268 266 264 263 264 266 267
194 195 199 204 202 194 193 197 198 195 194 196 201 204 204 200 199 200 200 198 197 195 193 192 190 188 187 186 185 187 191 195 201 205 209 213 216 219 225 229 233 238 242 246 250 255 260 265 269 270 270 271 271 271 271 270 270 271 272 271 270 272 273
195 199 199 198 195 192 194 197 196 194 194 197 202 207 210 212 213 214 214 213 212 213 211 211 211 211 213 214 214 214 213 212 214 217 219 223 225 227 230 233 236 239 242 245 250 254 259 263 266 268 270 271 273 274 274 273 272 272 273 274 275 278 280
189 191 191 188 185 185 186 185 185 186 189 192 196 201 205 210 215 217 219 220 220 223 225 226 227 230 233 235 237 239 239 238 239 241 243 244 245 247 248 249 250 249 250 250 251 253 257 260 262 264 266 267 269 271 272 274 274 274 275 277 279 281 282
172 171 174 176 178 179 179 179 179 181 187 193 196 197 199 201 207 212 216 221 224 228 233 237 240 243 247 250 254 256 258 258 259 260 260 261 262 264 265 265 265 264 264 263 262 260 260 261 262 263 264 265 266 267 268 269 270 271 272 274 278 280 281
153 157 165 171 178 179 173 174 177 180 191 200 201 199 197 195 199 205 212 224 232 239 244 248 252 256 258 261 263 265 267 267 267 267 267 268 269 269 269 269 270 270 271 271 270 269 267 266 266 265 265 266 265 264 264 265 266 267 269 271 274 275 276
135 144 160 173 182 184 178 178 182 182 188 197 201 201 199 197 203 209 214 227 240 250 257 259 261 262 263 265 265 266 267 267 267 268 268 269 270 270 271 271 271 272 271 271 271 271 270 269 268 267 267 267 266 265 264 264 265 266 268 269 271 272 273
123 119 136 152 160 171 183 205 211 204 200 205 209 208 205 206 212 216 222 238 249 255 260 263 266 266 267 268 269 269 270 270 270 270 271 271 271 272 272 272 272 272 272 272 271 271 271 270 269 269 268 267 266 266 266 265 264 265 266 267 268 270 270
131 119 126 127 117 119 137 174 206 225 244 251 247 239 238 241 238 233 243 267 274 270 269 269 271 273 274 275 277 278 279 280 281 281 281 281 281 280 279 277 275 274 273 272 272 272 272 272 271 269 267 266 266 267 266 265 263 262 261 262 263 264 265
108 117 114 86 78 64 80 138 184 217 248 263 262 255 256 262 260 256 266 281 283 281 281 281 283 285 287 288 289 289 290 290 291 291 290 290 289 288 288 286 284 282 279 277 276 275 274 274 273 271 270 270 271 271 269 267 265 262 259 258 260 261 262
60 58 34 13 356 330 323 309 275 258 258 263 264 261 262 266 265 265 272 278 279 280 282 285 287 289 289 290 290 291 291 291 291 291 291 290 289 288 287 287 286 284 283 282 281 279 277 275 274 272 272 272 273 273 271 269 268 266 263 262 262 262 263
40 36 29 17 0 342 330 318 307 299 288 281 280 276 272 272 273 275 277 277 277 279 282 285 286 286 287 288 289 288 287 287 286 286 285 285 285 284 283 283 282 281 280 280 279 279 277 275 274 273 272 271 269 269 268 267 266 266 265 264 263 263 263
34 29 24 16 7 354 340 329 318 307 299 292 286 281 278 276 276 277 277 277 279 280 282 283 284 285 286 287 287 287 286 285 284 283 282 282 282 281 280 279 277 276 276 274 274 273 273 273 272 272 271 271 269 267 266 265 265 264 263 262 262 262 262
Height
1540 1542 1542 1543 1545 1546 1547 1548 1549 1549 1550 1551 1551 1552 1552 1553 1553 1554 1555 1556 1557 1557 1558 1559 1560 1561 1563 1564 1565 1566 1567 1569 1570 1572 1573 1574 1575 1575 1577 1578 1579 1579 1580 1581 1582 1583 1584 1586 1588 1588 1589 1589 1590 1590 1590 1591 1591 1591 1592 1592 1592 1592 1592
1540 1541 1542 1543 1544 1545 1547 1547 1548 1549 1550 1550 1551 1552 1552 1553 1553 1554 1555 1555 1556 1557 1558 1559 1560 1561 1562 1564 1565 1567 1568 1569 1571 1572 1573 1574 1574 1575 1577 1577 1578 1578 1580 1581 1582 1583 1584 1585 1587 1588 1589 1590 1590 1591 1591 1591 1591 1592 1592 1592 1593 1593 1593
1539 1541 1542 1543 1544 1545 1546 1547 1548 1549 1550 1550 1551 1552 1552 1553 1553 1554 1554 1555 1556 1557 1558 1559 1560 1561 1562 1564 1565 1567 1568 1570 1571 1572 1573 1574 1574 1575 1576 1576 1577 1578 1579 1580 1581 1583 1584 1585 1586 1588 1589 1590 1590 1591 1591 1591 1592 1592 1593 1593 1593 1593 1593
1538 1540 1541 1543 1544 1545 1546 1547 1548 1549 1550 1550 1551 1552 1552 1553 1553 1554 1554 1555 1556 1556 1557 1558 1560 1561 1562 1563 1565 1566 1567 1569 1570 1571 1572 1573 1573 1574 1575 1575 1576 1577 1578 1579 1580 1582 1583 1584 1585 1587 1589 1590 1591 1591 1592 1592 1592 1592 1593 1593 1593 1593 1594
1538 1539 1541 1542 1543 1545 1546 1547 1548 1548 1549 1550 1551 1551 1552 1552 1553 1554 1554 1555 1555 1556 1557 1558 1559 1560 1561 1563 1564 1565 1566 1567 1569 1570 1571 1572 1572 1573 1574 1574 1575 1575 1577 1579 1580 1582 1583 1584 1585 1586 1588 1590 1591 1592 1592 1592 1592 1593 1593 1593 1594 1594 1594
1537 1539 1540 1542 1543 1544 1545 1546 1547 1548 1549 1549 1550 1551 1551 1552 1553 1553 1554 1555 1555 1556 1557 1558 1559 1560 1561 1563 1563 1564 1565 1566 1568 1569 1570 1571 1572 1572 1573 1573 1574 1574 1576 1578 1580 1582 1583 1584 1585 1586 1588 1590 1591 1591 1592 1593 1593 1593 1593 1594 1594 1594 1594
1537 1538 1539 1541 1542 1543 1544 1545 1546 1547 1548 1549 1550 1550 1551 1551 1552 1553 1554 1554 1555 1556 1556 1557 1558 1559 1561 1562 1563 1564 1565 1566 1567 1568 1569 1570 1571 1572 1572 1573 1573 1574 1576 1578 1580 1581 1583 1584 1585 1585 1587 1589 1591 1592 1592 1593 1593 1594 1594 1594 1594 1594 1595
1536 1537 1538 1540 1541 1542 1543 1544 1546 1547 1548 1548 1549 1550 1550 1551 1552 1552 1553 1554 1555 1555 1556 1557 1558 1559 1560 1561 1562 1564 1565 1566 1567 1568 1568 1569 1570 1571 1571 1572 1573 1574 1576 1577 1579 1581 1582 1584 1585 1585 1586 1588 1590 1591 1593 1593 1593 1594 1594 1594 1594 1595 1595
1535 1536 1537 1539 1540 1541 1543 1544 1545 1546 1547 1548 1548 1549 1550 1550 1551 1552 1552 1554 1554 1555 1556 1557 1557 1558 1559 1560 1561 1563 1564 1565 1566 1567 1568 1568 1569 1570 1570 1571 1573 1574 1576 1577 1579 1581 1582 1584 1585 1586 1587 1587 1588 1590 1592 1593 1594 1594 1594 1594 1594 1594 1595
1535 1536 1537 1538 1539 1541 1542 1543 1544 1545 1546 1547 1547 1548 1549 1550 1550 1551 1552 1553 1554 1555 1555 1556 1557 1557 1558 1559 1560 1562 1563 1564 1565 1566 1567 1567 1568 1569 1570 1571 1572 1574 1575 1577 1579 1580 1582 1583 1585 1586 1587 1588 1588 1589 1590 1592 1593 1593 1593 1594 1594 1594 1595
1534 1536 1537 1538 1539 1540 1541 1543 1544 1545 1546 1546 1547 1548 1548 1549 1550 1551 1551 1552 1553 1554 1555 1555 1556 1557 1557 1558 1560 1561 1562 1563 1564 1565 1566 1567 1568 1569 1570 1571 1572 1574 1575 1577 1579 1580 1581 1583 1584 1586 1587 1588 1588 1589 1589 1591 1592 1592 1593 1593 1594 1594 1594
1535 1536 1537 1538 1539 1540 1542 1543 1544 1545 1546 1546 1547 1547 1548 1549 1550 1550 1551 1552 1552 1553 1554 1555 1556 1556 1557 1558 1559 1560 1561 1562 1563 1564 1565 1567 1567 1569 1569 1570 1572 1573 1575 1577 1578 1580 1581 1583 1584 1585 1586 1587 1588 1589 1590 1591 1592 1592 1592 1593 1594 1594 1594
1536 1537 1538 1539 1540 1541 1542 1543 1544 1545 1545 1546 1546 1547 1548 1548 1549 1550 1551 1552 1552 1553 1554 1555 1555 1556 1557 1558 1559 1560 1561 1562 1563 1564 1565 1566 1567 1568 1569 1570 1572 1573 1575 1576 1578 1579 1581 1582 1584 1585 1586 1587 1588 1589 1590 1591 1592 1592 1592 1593 1593 1594 1594
1537 1538 1539 1540 1541 1542 1543 1543 1544 1545 1546 1546 1546 1547 1548 1548 1549 1550 1551 1552 1552 1553 1554 1554 1555 1556 1557 1558 1559 1559 1561 1562 1563 1564 1565 1566 1568 1569 1570 1571 1572 1573 1574 1576 1577 1579 1580 1582 1583 1585 1586 1587 1588 1589 1590 1591 1592 1592 1592 1592 1593 1593 1593
1537 1538 1539 1540 1541 1542 1543 1544 1545 1545 1546 1546 1546 1547 1547 1548 1549 1550 1551 1552 1553 1553 1554 1554 1555 1556 1557 1558 1559 1560 1561 1562 1563 1564 1566 1567 1568 1569 1570 1571 1572 1573 1574 1576 1577 1579 1580 1581 1583 1584 1585 1586 1587 1588 1589 1590 1591 1591 1592 1592 1592 1592 1593
1535 1537 1538 1540 1541 1542 1543 1544 1545 1545 1546 1546 1546 1547 1547 1548 1548 1550 1551 1552 1553 1554 1554 1555 1555 1556 1557 1558 1559 1560 1561 1562 1564 1565 1566 1567 1568 1569 1570 1571 1572 1573 1574 1576 1577 1578 1580 1581 1582 1584 1585 1585 1586 1587 1588 1589 1590 1590 1591 1591 1591 1591 1592
1534 1536 1538 1539 1540 1542 1543 1544 1545 1545 1546 1546 1546 1546 1547 1547 1548 1549 1550 1552 1553 1554 1554 1555 1556 1556 1557 1558 1559 1560 1561 1562 1563 1565 1566 1567 1568 1569 1570 1571 1572 1573 1574 1576 1577 1578 1579 1581 1582 1583 1584 1585 1585 1586 1587 1587 1588 1589 1590 1590 1590 1590 1591
1534 1536 1537 1539 1540 1541 1542 1543 1544 1545 1546 1546 1546 1546 1547 1547 1548 1549 1550 1551 1552 1553 1554 1555 1555 1556 1557 1558 1558 1560 1561 1562 1563 1564 1565 1566 1567 1568 1569 1570 1572 1573 1574 1575 1576 1577 1579 1580 1581 1582 1583 1584 1584 1585 1585 1586 1587 1587 1588 1589 1589 1590 1590
1533 1535 1537 1538 1539 1540 1542 1543 1544 1544 1545 1546 1546 1546 1547 1547 1547 1548 1549 1551 1552 1553 1554 1555 1555 1556 1557 1557 1558 1559 1560 1561 1562 1564 1565 1566 1567 1568 1569 1570 1571 1573 1574 1575 1576 1577 1578 1579 1580 1581 1582 1583 1583 1583 1584 1584 1585 1585 1586 1587 1588 1588 1588
1533 1535 1537 1538 1539 1540 1541 1542 1543 1544 1545 1545 1546 1547 1547 1547 1548 1548 1549 1550 1551 1552 1553 1554 1555 1556 1557 1557 1558 1559 1560 1561 1562 1563 1564 1565 1566 1567 1568 1570 1571 1572 1573 1574 1575 1576 1578 1579 1579 1580 1581 1581 1582 1582 1582 1583 1583 1583 1584 1585 1586 1586 1586
1532 1534 1536 1537 1539 1540 1541 1542 1543 1544 1545 1545 1546 1547 1547 1548 1548 1549 1549 1550 1551 1552 1553 1554 1555 1556 1556 1557 1558 1559 1560 1561 1561 1563 1564 1565 1566 1567 1568 1569 1570 1571 1572 1573 1574 1575 1576 1578 1578 1579 1580 1580 1580 1581 1581 1581 1581 1581 1582 1582 1583 1584 1584
1531 1533 1535 1537 1539 1540 1540 1541 1542 1543 1545 1545 1546 1547 1548 1548 1549 1549 1550 1550 1551 1552 1552 1553 1554 1555 1556 1557 1558 1559 1559 1560 1561 1562 1563 1564 1566 1567 1568 1569 1570 1571 1572 1573 1574 1575 1575 1576 1577 1578 1578 1579 1579 1579 1580 1580 1580 1580 1580 1581 1581 1582 1582
1530 1532 1534 1537 1538 1539 1540 1541 1542 1543 1544 1545 1546 1547 1548 1548 1549 1549 1550 1550 1551 1551 1552 1553 1553 1554 1555 1556 1557 1558 1559 1560 1561 1562 1563 1564 1565 1566 1567 1568 1569 1570 1571 1572 1573 1573 1574 1575 1575 1576 1576 1577 1577 1578 1578 1578 1578 1578 1579 1579 1579 1579 1580
1529 1531 1533 1535 1537 1538 1539 1540 1542 1543 1544 1545 1546 1547 1548 1548 1548 1549 1549 1550 1550 1551 1552 1552 1553 1554 1554 1555 1556 1557 1558 1559 1560 1562 1563 1564 1565 1566 1567 1568 1569 1569 1570 1571 1571 1572 1572 1573 1573 1574 1574 1574 1575 1575 1576 1576 1576 1576 1577 1577 1577 1577 1578
1528 1530 1532 1534 1535 1536 1538 1540 1541 1542 1543 1545 1546 1547 1547 1548 1548 1548 1549 1549 1550 1550 1551 1552 1552 1553 1554 1555 1556 1557 1558 1559 1559 1560 1561 1562 1564 1565 1566 1566 1567 1568 1569 1569 1570 1570 1571 1571 1571 1572 1572 1572 1572 1573 1573 1573 1574 1574 1574 1574 1575 1575 1575
1528 1529 1531 1532 1534 1536 1537 1539 1540 1541 1542 1544 1545 1546 1547 1547 1548 1548 1548 1549 1549 1550 1550 1551 1552 1553 1553 1554 1555 1556 1557 1558 1558 1559 1560 1561 1562 1563 1563 1564 1565 1566 1566 1567 1567 1568 1568 1569 1569 1569 1570 1570 1570 1570 1570 1571 1571 1571 1571 1572 1572 1572 1572
1527 1528 1530 1532 1533 1535 1537 1539 1539 1540 1541 1543 1544 1546 1546 1547 1547 1548 1548 1548 1549 1549 1550 1550 1551 1552 1553 1554 1554 1555 1556 1557 1557 1558 1559 1559 1560 1561 1561 1562 1562 1563 1564 1564 1565 1565 1566 1566 1566 1567 1567 1567 1567 1567 1568 1568 1568 1568 1568 1568 1568 1568 1569
1527 1528 1530 1532 1533 1535 1536 1537 1538 1540 1541 1542 1543 1544 1545 1546 1546 1547 1547 1548 1548 1548 1549 1549 1550 1551 1552 1553 1553 1554 1555 1555 1556 1557 1557 1558 1559 1559 1560 1560 1561 1562 1562 1562 1563 1563 1563 1563 1563 1564 1564 1564 1564 1564 1564 1565 1565 1565 1565 1565 1565 1565 1566
1527 1529 1530 1532 1534 1535 1536 1537 1538 1539 1540 1541 1542 1543 1543 1544 1545 1546 1546 1547 1547 1547 1548 1548 1549 1550 1550 1551 1552 1552 1553 1553 1554 1555 1555 1556 1557 1558 1558 1559 1559 1560 1560 1561 1560 1560 1560 1560 1560 1560 1560 1560 1561 1561 1561 1561 1561 1561 1562 1561 1562 1562 1562
1529 1531 1532 1533 1534 1535 1536 1537 1537 1539 1540 1540 1541 1542 1542 1543 1543 1544 1545 1546 1546 1546 1547 1547 1548 1548 1548 1549 1549 1550 1550 1551 1551 1552 1553 1554 1554 1555 1555 1556 1556 1557 1557 1557 1557 1557 1557 1557 1557 1557 1557 1557 1557 1557 1557 1558 1557 1557 1557 1557 1558 1558 1558
1530 1531 1532 1533 1534 1535 1536 1537 1538 1538 1539 1539 1540 1541 1542 1542 1543 1543 1543 1544 1544 1545 1545 1545 1546 1546 1546 1547 1547 1547 1547 1548 1548 1549 1550 1550 1551 1551 1552 1552 1552 1553 1553 1553 1553 1553 1553 1553 1553 1553 1553 1553 1553 1553 1553 1553 1553 1553 1553 1553 1554 1554 1554
1531 1532 1533 1533 1533 1534 1535 1537 1538 1538 1539 1539 1540 1540 1541 1541 1541 1542 1542 1542 1543 1543 1543 1543 1544 1544 1544 1544 1544 1544 1545 1545 1545 1546 1547 1547 1548 1548 1548 1548 1548 1549 1549 1549 1549 1549 1549 1549 1549 1549 1549 1549 1548 1548 1549 1549 1549 1548 1549 1549 1549 1549 1549
1532 1533 1533 1533 1534 1534 1535 1536 1537 1538 1538 1539 1539 1539 1540 1540 1541 1541 1540 1540 1541 1542 1542 1542 1542 1542 1542 1542 1542 1542 1542 1542 1542 1543 1543 1544 1544 1544 1544 1545 1545 1545 1545 1545 1545 1545 1545 1545 1545 1545 1545 1544 1544 1544 1545 1544 1544 1544 1544 1543 1544 1544 1544
1531 1532 1533 1533 1534 1534 1534 1535 1536 1537 1537 1537 1538 1538 1538 1538 1539 1540 1539 1539 1539 1540 1540 1540 1539 1539 1539 1539 1539 1538 1538 1538 1538 1538 1538 1539 1539 1539 1538 1539 1539 1540 1540 1540 1541 1541 1541 1541 1540 1540 1540 1539 1539 1539 1539 1539 1539 1539 1538 1538 1538 1538 1539
1530 1531 1531 1532 1532 1533 1533 1534 1534 1535 1536 1536 1536 1536 1536 1536 1537 1537 1537 1537 1537 1537 1537 1537 1536 1536 1536 1536 1535 1535 1534 1534 1533 1533 1533 1534 1534 1534 1533 1533 1533 1534 1534 1534 1535 1536 1536 1537 1536 1535 1535 1535 1535 1535 1534 1533 1533 1533 1533 1533 1533 1533 1533
1530 1530 1530 1531 1531 1531 1532 1532 1533 1533 1533 1534 1534 1534 1535 1535 1535 1535 1535 1535 1535 1535 1535 1534 1534 1533 1533 1533 1532 1532 1531 1531 1530 1530 1529 1529 1529 1529 1529 1529 1529 1529 1529 1529 1529 1529 1530 1530 1531 1530 1530 1531 1531 1530 1529 1528 1528 1528 1529 1528 1528 1528 1529
1529 1529 1529 1530 1530 1531 1531 1531 1531 1532 1532 1532 1532 1532 1533 1533 1533 1533 1533 1533 1533 1532 1532 1532 1531 1531 1531 1530 1530 1529 1528 1527 1526 1526 1525 1525 1525 1525 1524 1524 1524 1524 1524 1524 1524 1524 1524 1524 1524 1524 1525 1525 1525 1525 1524 1523 1523 1523 1524 1524 1524 1524 1524